Regional Weather Roundup
Issued by NWS

Home | Current Version | Previous Version | Text Only | Print | Product List | Glossary Off
Versions: 1 2 3 4 5 6 7 8 9 10 11 12 13 14 15 16 17 18 19 20 21 22 23 24 25 26 27 28 29 30 31 32 33 34 35 36 37 38 39 40 41 42 43 44 45 46 47 48 49 50

000
ASUS43 KLMK 221902
RWRKY
KENTUCKY REGIONAL WEATHER ROUNDUP
NATIONAL WEATHER SERVICE LOUISVILLE KY
200 PM EST SUN JAN 22 2017

NOTE "FAIR" INDICATES FEW OR NO CLOUDS BELOW 12,000 FEET
WITH NO SIGNIFICANT WEATHER AND/OR OBSTRUCTIONS TO VISIBILITY.

KYZ001>023-026-027-061>063-070>075-222000-
WESTERN AND SOUTH CENTRAL KENTUCKY

CITY           SKY/WX    TMP DP  RH WIND       PRES   REMARKS
PADUCAH        CLOUDY    61  53  75 NE7       29.36F
HENDERSON      CLOUDY    59  48  67 NE8       29.41F
OWENSBORO      LGT RAIN  59  52  77 E6        29.42F
HOPKINSVILLE   MOSUNNY   63  53  70 NE9       29.36F
BOWLING GREEN  CLOUDY    64  54  69 NE7       29.38F
GLASGOW        NOT AVBL
$$

KYZ024-025-028>034-038-045-046-053-222000-
NORTH CENTRAL KENTUCKY

CITY           SKY/WX    TMP DP  RH WIND       PRES   REMARKS
LOUISVILLE/SDF CLOUDY    60  50  69 W5        29.43F
LOUISVILLE/LOU CLOUDY    61  51  70 CALM      29.44F
FORT KNOX      LGT RAIN  55  50  82 E6        29.42F
$$

KYZ035>037-039>044-047>052-055>060-089>105-222000-
NORTHEAST KENTUCKY

CITY           SKY/WX    TMP DP  RH WIND       PRES   REMARKS
LEXINGTON      LGT RAIN  57  50  77 NE7       29.43F
COVINGTON      CLOUDY    61  52  72 E10       29.45F
FRANKFORT      CLOUDY    58  49  72 E8        29.43F
$$

KYZ054-064>069-076>088-106>120-222000-
SOUTHEAST KENTUCKY

CITY           SKY/WX    TMP DP  RH WIND       PRES   REMARKS
JACKSON        CLOUDY    55  52  89 CALM      29.43F
LONDON         CLOUDY    57  51  80 CALM      29.39F
SOMERSET       CLOUDY    54  54 100 CALM      29.40F
MIDDLESBORO    CLOUDY    56  55  96 CALM      29.40F
MONTICELLO     CLOUDY    57  53  86 W10       29.41F
$$





USA.gov is the U.S. government's official web portal to all federal, state and local government web resources and services.